Wind_Speed
15 17 18 16 17 19 19 21 23 24 25 25 26 29 28 28 29 30 30 32 33 35 36 36 38 37 36 37 37 37 38 37 35 36 36 34 34 33 32 33 33 33 33 32 33 32 31 31 32
19 19 21 19 19 23 25 26 26 26 25 27 29 31 28 24 26 28 31 32 31 34 35 36 36 37 39 40 40 38 34 33 33 34 36 36 34 34 34 33 35 34 35 35 36 36 35 33 33
22 22 23 23 22 25 29 28 25 28 29 30 32 31 33 30 30 33 27 28 32 35 35 36 35 35 35 34 34 35 36 37 36 35 35 35 35 34 34 34 34 34 36 37 38 38 37 35 35
25 27 27 26 25 26 29 30 28 32 32 31 34 32 26 27 30 29 27 30 33 33 35 36 36 37 38 34 31 31 32 33 35 37 37 37 36 35 36 34 33 36 38 39 40 40 38 37 36
27 29 29 27 28 30 32 33 34 37 34 33 36 37 33 34 33 29 27 29 31 32 34 37 36 35 33 28 29 32 36 36 35 34 33 34 35 35 37 36 36 37 39 39 37 38 38 38 38
27 30 30 26 25 28 32 36 40 40 35 32 38 37 34 29 27 26 30 28 30 32 31 29 30 27 27 28 29 30 33 35 37 38 40 40 40 40 39 37 39 39 37 36 36 35 37 38 38
32 33 30 26 25 28 35 43 41 38 33 34 35 34 31 28 31 32 29 27 31 32 28 29 31 30 30 32 33 37 38 39 40 40 41 42 41 38 37 37 38 35 33 34 34 36 36 38 40
36 38 36 34 29 32 33 39 38 42 32 35 29 34 36 32 34 31 29 28 31 33 30 30 32 32 34 36 38 39 38 38 38 37 35 37 38 34 34 34 32 32 34 36 37 35 36 37 39
39 45 39 34 32 36 43 38 39 43 38 34 34 39 41 36 30 29 29 29 31 31 32 32 32 34 37 38 40 42 41 40 40 39 37 37 37 36 36 32 31 35 34 33 32 33 35 36 39
45 45 41 39 41 41 43 42 38 43 41 33 38 40 43 36 30 28 28 29 31 29 31 34 34 37 38 40 42 41 38 38 35 34 34 32 33 29 27 30 33 33 35 34 36 37 37 37 37
46 49 39 45 44 46 47 46 47 46 41 34 39 44 43 36 29 25 27 28 28 29 31 37 38 37 37 39 40 38 35 33 32 32 30 30 29 28 31 32 31 34 34 38 38 36 34 34 35
50 51 45 47 46 51 49 49 47 49 42 40 44 49 46 31 29 22 25 26 24 30 34 37 39 38 37 37 37 35 33 32 32 31 30 30 30 31 29 31 36 37 37 33 31 33 32 32 33
54 48 50 53 55 53 51 49 51 49 41 47 48 53 43 30 30 22 25 22 26 31 32 31 35 39 37 35 34 33 33 32 32 32 31 30 32 32 32 34 33 32 31 31 33 33 30 31 32
56 53 55 57 55 50 49 51 59 51 45 50 52 57 34 29 24 20 19 22 23 24 23 28 32 37 33 33 34 34 33 33 33 34 31 30 32 33 35 34 32 32 30 32 34 31 28 29 30
62 61 59 59 54 52 53 56 60 53 57 60 56 43 26 31 26 20 18 19 22 21 23 27 31 34 33 33 35 34 33 33 34 34 31 32 35 34 34 34 33 31 31 33 32 27 26 28 28
65 64 60 54 50 49 53 56 60 54 54 49 40 35 26 27 24 21 16 14 15 20 23 27 32 35 33 34 33 33 33 34 35 32 32 35 33 32 32 33 32 32 31 27 23 22 22 25 23
69 60 54 47 38 44 47 52 46 40 38 36 34 26 24 20 23 19 13 11 19 21 25 29 33 34 31 32 33 32 33 33 34 30 30 30 31 33 31 30 28 29 24 20 21 21 22 18 19
61 54 52 48 27 32 34 43 39 27 37 33 24 21 20 20 15 14 14 13 19 28 30 29 33 31 30 31 32 31 33 33 32 29 30 30 33 35 30 27 28 20 18 19 20 18 15 15 14
63 56 50 36 30 31 29 34 22 29 33 21 22 22 20 20 9 7 12 14 22 25 32 35 30 27 28 31 30 31 34 34 31 29 30 34 36 32 27 25 16 15 16 14 11 10 10 10 13
60 57 45 22 21 30 29 35 21 26 23 25 24 22 17 11 7 9 13 18 23 27 31 31 26 26 28 29 30 32 32 34 31 29 29 31 33 27 23 13 13 14 10 5 7 7 12 13 14
50 43 29 21 31 31 35 32 21 25 27 22 19 20 12 12 7 8 14 20 24 26 27 23 23 25 27 28 30 32 32 31 29 29 27 31 29 20 17 11 11 10 6 4 10 13 14 17 18
48 32 33 30 34 30 34 31 23 26 28 23 20 14 14 10 6 10 15 20 16 15 18 19 21 24 27 28 30 30 31 26 24 26 26 29 23 20 12 9 9 8 4 8 12 16 17 19 19
36 33 34 31 36 37 36 40 16 28 29 23 16 12 11 4 7 13 20 20 12 16 16 18 23 24 27 29 28 28 27 22 22 25 23 25 21 16 10 7 7 5 2 16 16 17 17 18 21
38 35 35 33 39 48 32 38 15 28 21 21 24 14 11 5 8 11 20 15 12 15 17 19 22 23 27 28 27 26 23 21 22 21 24 21 19 11 6 5 2 6 14 19 20 18 19 19 22
41 39 39 44 47 46 28 36 4 9 25 21 18 15 11 8 12 15 22 14 13 16 15 18 20 23 26 25 25 23 18 21 21 19 19 18 13 7 2 4 7 13 19 18 18 19 21 18 23
41 42 43 43 41 40 27 37 10 18 20 23 18 15 14 11 7 14 17 13 16 17 15 17 19 23 23 22 21 16 19 19 19 19 13 17 10 6 3 5 8 14 19 16 20 18 16 14 24
42 45 41 42 43 46 33 35 23 16 29 17 13 15 14 5 7 13 13 12 17 13 13 15 18 19 20 20 17 18 18 19 18 13 12 13 8 4 5 7 9 13 14 18 21 22 21 19 20
48 44 44 46 46 47 39 33 20 24 28 17 13 17 10 9 6 11 10 12 9 10 10 13 17 18 18 17 15 15 16 15 14 11 12 13 8 4 10 8 9 12 16 21 23 23 23 21 17
52 53 53 49 49 49 46 32 20 31 29 19 18 16 11 6 8 11 7 7 11 9 8 13 14 14 17 15 13 13 15 11 16 16 15 13 10 6 12 10 9 11 14 19 22 24 24 23 21
46 46 45 48 47 46 42 28 23 28 29 23 21 16 7 4 7 8 5 5 11 10 8 12 12 14 15 13 12 14 18 11 13 15 14 16 10 8 11 11 10 11 13 15 20 22 22 21 20
Wind_Direction
248 259 266 278 289 294 298 309 314 325 327 312 300 293 292 297 301 303 299 299 304 304 300 298 297 301 298 294 292 291 290 288 282 280 277 273 271 270 270 271 269 268 266 263 261 261 257 257 259
251 254 260 271 281 289 296 302 313 321 319 310 309 298 293 292 294 289 286 293 301 301 297 297 299 299 297 297 295 293 291 289 285 274 271 269 266 265 265 271 272 268 267 267 266 264 261 258 257
257 253 257 268 276 284 289 294 309 318 315 313 311 300 295 290 285 286 288 297 307 300 304 303 303 302 302 302 302 299 297 293 288 283 276 275 272 270 272 274 270 269 270 269 269 266 264 260 257
253 253 254 262 271 278 280 289 299 312 310 310 310 306 299 293 291 287 295 310 305 305 306 305 303 302 300 300 301 299 294 290 289 287 283 280 279 282 281 276 274 274 275 273 270 267 263 258 249
252 251 254 262 274 278 281 287 298 303 302 294 307 310 314 299 290 289 296 309 302 305 307 302 303 302 300 298 299 298 297 299 295 294 292 287 283 286 283 279 279 282 280 275 270 266 262 252 250
255 258 258 262 269 277 288 294 294 300 297 300 308 306 309 299 294 299 307 306 304 301 300 300 304 307 306 304 302 299 302 305 303 300 297 294 294 293 289 287 288 285 280 275 270 263 258 256 252
259 261 260 262 264 267 281 289 293 298 296 301 305 308 306 294 295 301 302 305 302 301 290 300 300 303 303 302 304 311 312 313 309 304 298 295 289 285 285 284 284 282 283 278 273 271 264 256 255
264 263 261 267 262 266 280 280 294 294 288 297 306 323 311 303 296 299 306 304 303 299 290 292 301 305 307 309 313 312 312 312 307 299 296 292 289 288 288 287 279 278 281 278 275 272 272 264 257
258 259 261 260 261 270 277 277 290 286 287 297 298 307 311 305 307 306 304 303 298 297 294 291 297 305 307 308 309 309 310 308 304 300 297 293 292 292 290 286 280 281 287 281 269 269 268 264 261
251 251 262 259 263 274 280 281 282 277 278 295 298 299 303 298 296 297 297 296 296 292 297 295 295 300 305 307 309 309 307 306 302 300 299 297 296 291 289 287 284 282 282 278 274 273 268 265 261
269 260 265 262 265 265 277 278 278 279 275 283 287 291 294 293 289 283 288 287 294 297 301 297 297 297 303 309 310 309 309 307 304 302 300 302 299 292 293 290 290 291 282 280 276 273 270 265 258
272 261 259 264 265 265 271 274 277 280 283 284 284 290 301 283 280 282 286 287 294 292 296 297 301 302 306 311 311 314 312 311 306 308 307 306 301 298 296 295 294 288 284 278 275 275 271 263 257
267 266 263 261 264 269 273 278 284 276 280 279 283 291 295 284 272 279 277 287 291 289 293 304 314 308 314 313 316 318 317 311 312 313 311 307 305 297 299 298 290 286 280 281 280 278 267 256 253
262 268 262 262 268 270 275 283 277 281 282 278 277 286 275 268 265 269 290 290 287 289 302 317 312 311 315 315 317 319 317 314 316 315 311 310 308 299 300 299 289 286 282 282 282 274 265 258 255
257 264 263 263 272 279 282 279 278 279 274 271 276 269 252 258 261 272 291 291 285 297 300 304 305 311 315 315 317 319 316 316 318 315 314 313 308 301 301 297 288 289 285 286 279 266 266 260 259
255 262 267 268 277 286 284 273 271 271 271 270 260 242 244 256 260 268 277 292 320 320 314 313 310 311 312 316 317 319 317 318 318 315 316 316 314 309 304 297 291 291 289 282 269 266 267 266 247
256 260 266 274 287 279 272 269 267 267 253 249 237 239 247 262 257 265 259 304 310 304 306 315 314 310 313 315 320 317 318 319 316 314 317 319 321 316 307 302 297 293 284 274 277 271 270 242 240
257 263 269 274 255 253 257 268 276 243 236 238 232 240 244 261 264 264 269 303 305 302 303 309 311 309 312 316 317 319 318 317 314 315 320 321 319 310 312 304 299 289 284 284 278 270 236 239 236
258 260 267 273 240 271 275 268 244 221 236 231 227 240 250 264 278 291 305 318 310 297 305 306 307 309 313 316 317 320 317 316 312 317 318 318 319 313 309 307 297 297 297 288 259 220 222 194 178
251 254 261 210 260 274 272 261 245 232 233 234 239 249 257 265 278 294 309 306 302 292 298 305 304 311 312 314 321 318 315 314 313 317 318 319 324 315 313 307 300 307 298 260 191 179 170 165 160
253 249 238 235 265 271 276 253 243 221 229 245 244 245 247 245 263 284 324 297 283 286 293 301 308 310 312 319 321 314 314 312 313 320 314 319 322 317 318 310 312 318 284 200 169 161 157 152 138
245 226 234 252 267 266 257 249 235 222 233 254 262 275 239 244 272 290 303 306 295 301 304 309 311 311 315 324 316 316 315 312 319 322 316 322 321 313 314 308 313 322 272 181 164 154 149 140 140
223 232 241 247 257 259 241 256 198 225 237 259 262 249 232 252 287 296 304 304 306 313 304 310 312 314 322 319 315 317 317 318 320 325 326 326 323 314 312 317 324 352 137 155 149 147 146 152 152
230 237 240 241 247 248 239 253 239 234 253 253 244 215 213 239 302 296 317 300 317 321 309 304 309 318 320 315 315 314 317 321 326 325 330 331 325 321 328 340 13 105 130 143 146 147 145 150 149
221 228 230 237 240 245 240 252 184 211 230 230 238 216 226 242 276 291 308 318 320 313 316 311 312 318 317 320 319 315 324 323 323 330 328 337 334 347 47 57 104 133 135 136 148 148 148 146 157
227 227 236 241 246 255 241 248 264 233 253 231 203 206 227 242 293 315 316 328 316 305 310 311 312 321 322 327 324 330 326 326 326 333 338 344 345 16 92 90 109 143 150 132 140 144 148 127 161
223 228 235 243 248 251 240 249 260 240 232 234 198 213 223 259 315 324 329 322 310 304 306 304 318 329 327 330 329 336 333 332 335 338 340 357 6 24 131 111 123 134 150 146 144 145 138 136 150
230 234 236 237 242 246 246 243 242 220 236 232 204 209 226 265 339 338 335 322 316 322 303 315 333 336 336 339 342 344 345 2 17 11 10 19 26 47 134 127 131 146 151 149 146 145 146 143 142
226 229 228 228 237 246 252 241 228 215 232 213 221 215 230 276 348 337 318 336 345 331 315 329 347 353 352 353 1 353 357 355 16 39 31 21 37 86 128 127 121 130 143 153 154 151 146 141 138
223 226 232 236 239 247 250 236 224 212 228 218 222 219 234 306 338 329 322 341 351 341 326 336 344 342 345 351 3 3 14 11 26 37 37 37 56 95 125 127 131 131 137 148 159 163 162 157 157
Height
5888 5889 5890 5890 5892 5887 5885 5886 5886 5884 5884 5883 5884 5882 5881 5878 5875 5876 5872 5868 5867 5864 5858 5853 5850 5847 5845 5843 5842 5839 5838 5836 5834 5833 5832 5830 5829 5829 5829 5829 5829 5829 5830 5831 5832 5834 5836 5837 5837
5886 5886 5888 5888 5888 5886 5885 5884 5882 5881 5880 5880 5880 5880 5881 5880 5875 5872 5869 5867 5864 5859 5854 5849 5846 5843 5839 5835 5833 5831 5829 5828 5826 5824 5824 5823 5823 5823 5822 5821 5823 5823 5824 5824 5825 5825 5827 5827 5829
5884 5884 5886 5885 5885 5883 5882 5881 5880 5877 5876 5875 5875 5876 5876 5875 5873 5870 5867 5863 5859 5853 5848 5843 5840 5836 5833 5830 5827 5825 5823 5821 5819 5818 5816 5815 5815 5814 5816 5815 5815 5816 5817 5817 5817 5818 5818 5819 5820
5880 5881 5882 5882 5882 5881 5879 5877 5877 5876 5874 5872 5870 5871 5872 5870 5867 5866 5863 5858 5855 5849 5843 5838 5834 5832 5830 5827 5824 5821 5818 5815 5814 5812 5810 5809 5808 5806 5807 5807 5806 5806 5808 5807 5808 5808 5809 5809 5812
5875 5875 5877 5879 5878 5877 5875 5874 5874 5871 5870 5868 5865 5862 5864 5863 5862 5861 5858 5854 5850 5845 5840 5834 5831 5828 5826 5824 5821 5817 5815 5811 5808 5806 5805 5803 5801 5799 5801 5797 5797 5798 5798 5798 5799 5798 5799 5801 5802
5870 5870 5872 5876 5876 5873 5870 5868 5869 5866 5864 5863 5859 5857 5859 5856 5855 5855 5852 5848 5845 5840 5836 5830 5827 5825 5822 5819 5816 5813 5808 5805 5802 5799 5797 5795 5794 5792 5790 5787 5787 5788 5788 5788 5788 5789 5790 5792 5793
5865 5864 5867 5870 5873 5871 5868 5863 5861 5860 5858 5857 5854 5852 5853 5852 5850 5849 5846 5843 5840 5835 5831 5827 5823 5821 5818 5814 5810 5807 5804 5800 5797 5793 5790 5788 5788 5785 5782 5780 5779 5778 5778 5777 5778 5778 5780 5782 5783
5859 5857 5862 5865 5867 5866 5865 5858 5856 5854 5856 5852 5851 5848 5847 5847 5845 5844 5841 5838 5835 5830 5826 5823 5820 5816 5812 5809 5806 5802 5798 5795 5791 5787 5783 5780 5778 5776 5774 5771 5771 5771 5770 5769 5768 5769 5769 5769 5772
5850 5850 5856 5860 5860 5861 5856 5858 5856 5849 5848 5849 5848 5844 5842 5841 5841 5838 5836 5833 5829 5826 5822 5819 5815 5811 5808 5804 5801 5797 5793 5788 5784 5780 5776 5773 5770 5768 5765 5764 5763 5762 5760 5760 5760 5760 5760 5760 5762
5842 5842 5849 5855 5853 5854 5850 5850 5850 5845 5843 5847 5842 5840 5839 5837 5835 5834 5831 5828 5824 5821 5818 5814 5810 5806 5803 5800 5796 5792 5787 5782 5778 5774 5769 5766 5763 5761 5759 5757 5756 5754 5752 5751 5750 5750 5749 5750 5751
5836 5834 5845 5845 5847 5842 5844 5842 5837 5838 5841 5844 5839 5835 5833 5832 5832 5829 5826 5823 5820 5817 5813 5809 5804 5801 5798 5795 5790 5785 5780 5775 5772 5769 5764 5760 5757 5754 5752 5749 5747 5745 5744 5742 5740 5739 5739 5740 5742
5821 5827 5834 5836 5836 5832 5835 5832 5832 5832 5835 5837 5832 5826 5827 5825 5826 5823 5820 5818 5816 5812 5808 5804 5798 5795 5793 5789 5784 5778 5773 5769 5767 5762 5757 5754 5750 5748 5746 5743 5739 5736 5734 5733 5732 5731 5730 5731 5733
5812 5820 5822 5823 5824 5825 5825 5823 5824 5824 5831 5827 5824 5819 5820 5821 5820 5817 5815 5813 5811 5807 5803 5799 5794 5789 5787 5782 5777 5772 5768 5764 5760 5756 5751 5748 5744 5741 5738 5736 5732 5729 5727 5725 5723 5722 5721 5722 5724
5807 5809 5811 5810 5813 5818 5818 5817 5812 5817 5821 5817 5815 5813 5813 5815 5812 5810 5810 5808 5805 5801 5798 5795 5790 5785 5781 5777 5771 5766 5762 5758 5753 5750 5746 5742 5738 5733 5730 5728 5725 5722 5720 5717 5715 5713 5713 5714 5715
5796 5795 5798 5802 5808 5809 5812 5798 5801 5809 5807 5802 5804 5803 5804 5808 5805 5804 5804 5802 5799 5796 5793 5789 5785 5781 5776 5771 5766 5761 5756 5752 5748 5744 5739 5736 5732 5727 5724 5720 5717 5714 5711 5708 5706 5705 5705 5706 5707
5786 5787 5791 5799 5805 5804 5801 5781 5787 5795 5790 5789 5792 5794 5796 5801 5799 5799 5798 5796 5794 5792 5789 5784 5780 5776 5771 5766 5761 5756 5751 5747 5743 5739 5734 5729 5724 5720 5716 5713 5709 5706 5702 5699 5699 5699 5699 5699 5699
5773 5779 5785 5792 5802 5794 5786 5776 5779 5782 5779 5780 5784 5789 5791 5794 5793 5793 5792 5790 5789 5786 5783 5779 5775 5771 5766 5761 5756 5751 5746 5743 5739 5734 5729 5724 5720 5715 5711 5706 5702 5698 5695 5694 5694 5693 5692 5692 5694
5768 5776 5779 5783 5793 5781 5779 5770 5774 5775 5773 5776 5783 5785 5787 5788 5787 5787 5787 5783 5784 5780 5777 5773 5770 5766 5761 5756 5751 5746 5742 5739 5734 5729 5725 5720 5716 5711 5705 5700 5696 5693 5691 5689 5687 5687 5687 5689 5690
5764 5767 5771 5782 5779 5774 5771 5767 5771 5770 5770 5776 5779 5780 5782 5782 5783 5782 5781 5778 5778 5775 5771 5768 5764 5761 5756 5751 5746 5741 5738 5734 5729 5725 5721 5716 5710 5705 5699 5695 5691 5690 5687 5685 5684 5684 5686 5688 5690
5754 5758 5766 5773 5772 5766 5766 5763 5769 5770 5771 5773 5775 5777 5778 5779 5778 5776 5775 5773 5772 5770 5766 5763 5760 5755 5751 5746 5741 5738 5734 5730 5725 5721 5717 5712 5706 5700 5695 5691 5689 5687 5685 5683 5683 5685 5687 5689 5691
5745 5752 5763 5765 5762 5759 5758 5757 5764 5767 5767 5769 5772 5773 5775 5775 5773 5772 5770 5768 5766 5763 5761 5759 5755 5751 5746 5742 5737 5734 5730 5726 5721 5717 5713 5708 5703 5697 5692 5689 5687 5685 5684 5683 5684 5686 5689 5691 5693
5736 5750 5753 5757 5753 5754 5753 5748 5758 5761 5763 5766 5770 5770 5771 5770 5768 5768 5766 5763 5760 5758 5757 5754 5750 5746 5742 5738 5734 5730 5726 5721 5718 5713 5709 5704 5699 5694 5690 5688 5686 5684 5683 5683 5686 5689 5691 5694 5696
5731 5742 5745 5748 5745 5744 5748 5744 5757 5756 5758 5764 5767 5767 5767 5765 5764 5764 5763 5760 5757 5754 5753 5751 5746 5741 5738 5735 5731 5727 5721 5718 5715 5710 5706 5701 5696 5691 5688 5687 5685 5684 5682 5684 5687 5691 5694 5696 5698
5723 5730 5734 5736 5735 5728 5746 5744 5751 5753 5759 5760 5762 5762 5761 5762 5761 5761 5760 5756 5753 5751 5749 5746 5741 5738 5735 5731 5727 5722 5718 5715 5711 5707 5703 5698 5693 5689 5687 5686 5686 5685 5685 5687 5690 5694 5696 5698 5702
5712 5719 5723 5725 5723 5723 5744 5739 5748 5750 5752 5756 5757 5758 5759 5757 5758 5757 5755 5752 5750 5748 5745 5742 5738 5736 5733 5728 5723 5718 5716 5713 5709 5706 5701 5696 5691 5689 5687 5688 5687 5687 5688 5691 5693 5696 5698 5701 5704
5706 5713 5716 5719 5722 5726 5740 5729 5743 5750 5749 5750 5752 5754 5756 5756 5754 5753 5751 5747 5746 5745 5742 5739 5737 5734 5730 5725 5720 5717 5714 5710 5707 5704 5699 5695 5691 5689 5689 5690 5690 5690 5692 5694 5696 5699 5702 5703 5707
5699 5701 5713 5716 5718 5719 5731 5731 5739 5745 5744 5748 5750 5752 5753 5752 5751 5750 5747 5745 5744 5741 5739 5738 5735 5732 5727 5723 5719 5716 5712 5709 5706 5701 5699 5694 5691 5690 5691 5692 5693 5694 5696 5697 5699 5702 5704 5707 5710
5689 5699 5704 5706 5708 5711 5720 5728 5737 5741 5741 5745 5747 5749 5749 5749 5748 5747 5745 5743 5741 5739 5737 5736 5733 5730 5725 5721 5718 5716 5712 5709 5705 5701 5699 5695 5692 5690 5692 5694 5696 5697 5699 5700 5702 5704 5707 5711 5714
5681 5684 5689 5697 5701 5705 5711 5724 5735 5736 5738 5742 5745 5745 5745 5745 5744 5744 5743 5741 5739 5737 5736 5734 5731 5729 5725 5722 5719 5716 5713 5710 5707 5702 5699 5696 5694 5693 5695 5697 5699 5700 5702 5704 5706 5708 5712 5715 5718
5673 5679 5688 5695 5699 5701 5709 5722 5728 5731 5735 5739 5741 5742 5741 5741 5742 5741 5741 5739 5737 5735 5734 5733 5731 5729 5727 5724 5721 5717 5714 5711 5708 5704 5702 5700 5698 5697 5698 5699 5701 5703 5704 5707 5709 5712 5714 5718 5721